Jersey, United Kingdom

11:41 AM GMT on December 05, 2016 (GMT +0000)
Jersey

Weather History for EGJJ - September, 2012

Change the Weather History Date:

Tuesday, September 25, 2012

  Actual Average Record
Temperature  
Mean Temperature 57 °F -  
Max Temperature 62 °F 63 °F 69 °F (1997)
Min Temperature 52 °F 54 °F 42 °F (2003)
Degree Days  
Heating Degree Days 8    
Growing Degree Days 7 (Base 50)    
Moisture  
Dew Point 49 °F    
Average Humidity 74    
Maximum Humidity 88    
Minimum Humidity 54    
Precipitation  
Precipitation 0.00 in - - ()
Sea Level Pressure  
Sea Level Pressure 29.29 in    
Wind  
Wind Speed 20 mph ()    
Max Wind Speed 28 mph    
Max Gust Speed 36 mph    
Visibility 6.8 miles    
Events Rain    
Averages and records for this station are not official NWS values.
T = Trace of Precipitation, MM = Missing Value Source: Averaged Metar Reports

Daily Weather History Graph

Daily Weather History Graph

Search for Another Location

Airport or City:

Trip Planner

Search our weather history database for the weather conditions in past years. The results will help you decide how hot, cold, wet, or windy it might be!

Date:

Astronomy

Sep. 25, 2012 Rise Set
Actual Time 7:00 AM BST 6:59 PM BST
Civil Twilight 6:28 AM BST 7:31 PM BST
Nautical Twilight 5:51 AM BST 8:08 PM BST
Astronomical Twilight 5:12 AM BST 8:46 PM BST
Moon 4:34 PM BST (9/25) 1:42 AM BST (9/25)
Length of Visible Light 13h 02m
Length of Day
11h 59m
Waxing Gibbous, 78% of the Moon is Illuminated
Sep 25
Waxing Gibbous
Sep 30
Full
Oct 8
Last Quarter
Oct 15
New
Oct 22
First Quarter

Hourly Weather History & Observations

Time (BST) Temp. Dew Point Humidity Pressure Visibility Wind Dir Wind Speed Gust Speed Precip Events Conditions
1:00 AM 55 °F 50 °F 78% 29.36 in 25 mi WSW 25.3 mph - -   Partly Cloudy
3:50 AM 55.4 °F 48.2 °F 77% 29.33 in 6.2 mi SW 24.2 mph - N/A   Scattered Clouds
4:00 AM 54 °F 49 °F 76% 29.33 in 22 mi SW 21.9 mph - -   Partly Cloudy
4:20 AM 55.4 °F 50.0 °F 82% 29.30 in 6.2 mi SW 21.9 mph - N/A   Scattered Clouds
4:50 AM 55.4 °F 50.0 °F 82% 29.30 in 6.2 mi SW 27.6 mph - N/A   Scattered Clouds
5:20 AM 53.6 °F 50.0 °F 88% 29.30 in 6.2 mi SW 27.6 mph - N/A   Scattered Clouds
5:50 AM 55.4 °F 50.0 °F 82% 29.30 in 6.2 mi SW 24.2 mph - N/A   Mostly Cloudy
6:20 AM 53.6 °F 46.4 °F 77% 29.30 in 6.2 mi West 18.4 mph - N/A   Mostly Cloudy
6:50 AM 53.6 °F 50.0 °F 88% 29.30 in 6.2 mi WSW 24.2 mph - N/A Rain Light Rain Showers
7:00 AM 54 °F 49 °F 79% 29.31 in 9 mi SW 23.0 mph - - Rain Light Rain Showers
7:20 AM 53.6 °F 48.2 °F 82% 29.30 in 6.2 mi WSW 21.9 mph - N/A   Mostly Cloudy
7:50 AM 53.6 °F 48.2 °F 82% 29.30 in 6.2 mi SW 23.0 mph - N/A   Scattered Clouds
8:20 AM 55.4 °F 48.2 °F 77% 29.30 in 6.2 mi WSW 24.2 mph - N/A   Scattered Clouds
8:50 AM 55.4 °F 50.0 °F 82% 29.30 in 6.2 mi SW 25.3 mph - N/A   Mostly Cloudy
9:20 AM 57.2 °F 50.0 °F 77% 29.30 in 6.2 mi SW 25.3 mph - N/A   Scattered Clouds
9:50 AM 57.2 °F 50.0 °F 77% 29.30 in 6.2 mi SW 17.3 mph - N/A   Scattered Clouds
10:00 AM 58 °F 50 °F 66% 29.31 in 16 mi SW 21.9 mph - -   Partly Cloudy
10:20 AM 57.2 °F 48.2 °F 72% 29.30 in 6.2 mi SW 24.2 mph - N/A   Partly Cloudy
10:50 AM 59.0 °F 50.0 °F 72% 29.30 in 6.2 mi WSW 25.3 mph - N/A   Scattered Clouds
11:20 AM 59.0 °F 50.0 °F 72% 29.30 in 6.2 mi SW 23.0 mph - N/A   Scattered Clouds
11:50 AM 59.0 °F 48.2 °F 67% 29.30 in 6.2 mi WSW 24.2 mph - N/A   Scattered Clouds
12:20 PM 60.8 °F 50.0 °F 68% 29.30 in 6.2 mi SW 26.5 mph - N/A   Scattered Clouds
12:50 PM 59.0 °F 48.2 °F 67% 29.30 in 6.2 mi SW 20.7 mph - N/A   Scattered Clouds
1:00 PM 59 °F 47 °F 55% 29.29 in 17 mi SW 21.9 mph - -   Mostly Cloudy
1:20 PM 62.6 °F 48.2 °F 59% 29.27 in 6.2 mi SW 25.3 mph - N/A   Partly Cloudy
1:50 PM 59.0 °F 48.2 °F 67% 29.27 in 6.2 mi WSW 21.9 mph - N/A   Partly Cloudy
2:20 PM 60.8 °F 50.0 °F 68% 29.27 in 6.2 mi WSW 23.0 mph - N/A   Partly Cloudy
2:50 PM 60.8 °F 48.2 °F 63% 29.27 in 6.2 mi WSW 20.7 mph - N/A   Partly Cloudy
3:20 PM 59.0 °F 48.2 °F 67% 29.27 in 6.2 mi SW 19.6 mph 35.7 mph N/A   Partly Cloudy
3:50 PM 60.8 °F 48.2 °F 63% 29.27 in 6.2 mi SW 23.0 mph - N/A   Partly Cloudy
4:00 PM 60 °F 48 °F 54% 29.27 in 22 mi SW 18.4 mph - -   Scattered Clouds
4:20 PM 60.8 °F 48.2 °F 63% 29.27 in 6.2 mi SW 17.3 mph - N/A   Partly Cloudy
4:50 PM 57.2 °F 50.0 °F 77% 29.27 in 6.2 mi West 18.4 mph - N/A   Scattered Clouds
5:20 PM 57.2 °F 53.6 °F 88% 29.27 in 6.2 mi WSW 13.8 mph - N/A Rain Light Rain Showers
5:50 PM 55.4 °F 50.0 °F 82% 29.24 in 6.2 mi WSW 10.4 mph - N/A   Partly Cloudy
6:20 PM 55.4 °F 50.0 °F 82% 29.24 in 6.2 mi SW 12.7 mph - N/A   Partly Cloudy
6:50 PM 55.4 °F 50.0 °F 82% 29.24 in 6.2 mi WSW 13.8 mph - N/A   Scattered Clouds
7:00 PM 56 °F 50 °F 73% 29.26 in 22 mi WSW 12.7 mph - - Rain Light Rain Showers
7:20 PM 53.6 °F 46.4 °F 77% 29.24 in 6.2 mi WSW 11.5 mph - N/A   Partly Cloudy
8:20 PM 55.4 °F 48.2 °F 77% 29.24 in 6.2 mi WSW 15.0 mph - N/A   Scattered Clouds
8:50 PM 55.4 °F 48.2 °F 77% 29.24 in 6.2 mi WSW 11.5 mph - N/A   Scattered Clouds
10:00 PM 54 °F 48 °F 74% 29.26 in 22 mi WSW 18.4 mph - - Rain Light Rain Showers